Regional Weather Roundup
Issued by NWS Charleston, SC

Current Version | Previous Version | Graphics & Text | Print | Product List | Glossary On
Versions: 1 2 3 4 5 6 7 8 9 10 11 12 13 14 15 16 17 18 19 20 21 22 23 24 25 26 27 28 29 30 31 32 33 34 35 36 37 38 39 40 41 42 43 44 45 46 47 48 49 50
000 ASUS42 KCHS 051726 RWRCHS REGIONAL WEATHER ROUNDUP NATIONAL WEATHER SERVICE CHARLESTON SC 1200 PM EST THU MAR 05 2015 NOTE: "FAIR" INDICATES FEW OR NO CLOUDS BELOW 12,000 FEET WITH NO SIGNIFICANT WEATHER AND/OR OBSTRUCTIONS TO VISIBILITY. NOT ALL STATIONS ARE QUALITY CONTROLLED BY THE NATIONAL WEATHER SERVICE. USE DATA WITH CAUTION...ESPECIALLY DEWPOINT OBSERVATIONS. SCZ027-030-031-034>040-042>050-051800- ...SOUTHEAST SOUTH CAROLINA... CITY SKY/WX TMP DP RH WIND PRES REMARKS N CHARLESTON PTSUNNY 74 63 68 SW18G28 30.01F WATERFRONT PRK N/A 66 N/A N/A SW18G26 N/A MOUNT PLEASANT FAIR 73 64 73 SW15G26 30.01F PINOPOLIS NOT AVBL MONCKS CORNER FAIR 81 63 54 SW21G29 29.96F SUMMERVILLE PTSUNNY 79 64 61 S13G21 29.98F BEAUFORT MCAS MOSUNNY 77 66 68 VRB7G17 30.00F BEAUFORT ARPT FAIR 73 64 73 S13G20 30.00F HAZE HILTON HEAD IS MOSUNNY 70 64 83 S9G17 30.04F WALTERBORO PTSUNNY 82 63 51 SW20G28 29.98F ALLENDALE CLOUDY 79 63 57 SW12G25 29.97F ...SOUTHERN MIDLANDS AND PEE DEE... CITY SKY/WX TMP DP RH WIND PRES REMARKS GEORGETOWN NOT AVBL KINGSTREE NOT AVBL ORANGEBURG PTSUNNY 78 61 55 SW21G31 29.95F BARNWELL PTSUNNY 81 64 57 SW17G25 29.97F AIKEN PTSUNNY 77 63 61 S17G29 29.97F MANNING PTSUNNY 79 59 50 SW13G22 29.95F COLUMBIA CLOUDY 76 62 62 SW17G31 29.92F SUMTER PTSUNNY 76 62 62 S20G36 29.91F FLORENCE PTSUNNY 77 61 57 SW20G30 29.92F MYRTLE BEACH MOSUNNY 72 63 73 S17G24 29.98F N MYRTLE BEACH CLOUDY 63 59 87 SW22G30 29.96F $$ GAZ063-065-086>088-099>101-113>116-118-119-134>141-150-051800- ...SOUTHEAST GEORGIA... CITY SKY/WX TMP DP RH WIND PRES REMARKS SAVANNAH ARPT PTSUNNY 80 61 52 SW22G28 30.02S HUNTER AAF MOSUNNY 81 64 57 SW17G28 30.00F FORT STEWART MOSUNNY 79 63 57 SW20G30 30.02S STATESBORO CLOUDY 79 65 62 SW15G26 30.00F SYLVANIA PTSUNNY 78 65 65 SW13G23 30.00F CLAXTON FAIR 79 64 61 SW13G25 30.01F ...CSRA...CENTRAL AND FAR SOUTHEAST GEORGIA... CITY SKY/WX TMP DP RH WIND PRES REMARKS THOMSON PTSUNNY 79 67 66 SW17G28 29.97F AUGUSTA-BUSH PTSUNNY 76 63 64 SW18G31 29.95S AUGUSTA-DANIEL PTSUNNY 77 63 61 S24G35 29.95F SWAINSBORO CLOUDY 79 54 41 SW13G24 30.01F VIDALIA CLOUDY 77 63 61 SW17G24 30.02F EASTMAN PTSUNNY 79 66 64 SW16G25 30.03F HAZLEHURST PTSUNNY 78 65 63 SW7 30.02F ALMA CLOUDY 77 63 61 SW15 30.04F WAYCROSS PTSUNNY 82 67 60 SW14G22 30.05F JESUP CLOUDY 81 68 65 SW15G22 30.05F BAXLEY PTSUNNY 79 64 61 SW8G23 30.03F BRUNSWICK PTSUNNY 81 63 54 SW14G20 30.06F SAINT SIMONS MOSUNNY 78 62 57 SW14 30.06F $$ SCZ027-028-034-036>038-045-046-048>050-GAZ119-141-051800- ...LAKE AND SUPPLEMENTAL COASTAL OBSERVATIONS... STATION/POSITION TIME TEMP WIND PRES WAVE SWELL AIR SEA DIR/SP/G HT/PER HT/PER/DIR (UTC) (F) (DEG/KT/KT) (MB) (FT/S) (FT/S/D) UPR LAKE MARION NOT AVBL WINYAH BAY 1645 71 210/ 16 1015.0S LAKE MURRAY 1700 71 220/ 19/ 25 1012.5S ACE BASIN NERRS 1645 70 170/ 2 1017.0S FORT PULASKI 1700 67 52 180/ 8/ 18 1017.3F SAPELO ISLAND 1600 77 200/ 16 1017.0F $$ ANZ835-935-AMZ111-154-330-350-352-354-370-450-454-472-051800- ...C-MAN AND BUOY OBSERVATIONS... STATION/POSITION TIME TEMP WIND PRES WAVE SWELL AIR SEA DIR/SP/G HT/PER HT/PER/DIR (UTC) (F) (DEG/KT/KT) (MB) (FT/S) (FT/S/D) BUOY 41004 1650 70 68 210/ 21/ 27 1016.1F 6/ 7 3/ 8 BUOY 41008 1650 59 55 200/ 14/ 16 1018.2R 3/ 9 2/130/ 9 FOLLY BEACH CMAN 1700 56 210/ 12/ 12 1017.4F CAPERS NEARSHORE 1600 54 260/ 8/ 8 N/A FRIPP NEARSHORE 1600 56 210/ 10/ 12 1017.1R STATION/POSITION TIME TEMP WIND PRES WAVE SWELL AIR SEA DIR/SP/G HT/PER HT/PER/DIR (UTC) (F) (DEG/KT/KT) (MB) (FT/S) (FT/S/D) 5E ST. MARYS GA 1621 55 N/A 3/ 6 2/110/11 FRYING PAN BUOY 1650 68 64 210/ 17/ 19 1016.1F 6/ 7 5/180/ 7 BUOY 41025 NOT AVBL CAPE LOOKOUT NC 1700 61 240/ 11/ 15 1015.2F BUOY 41002 1650 74 73 220/ 19/ 23 1020.7F 7/ 7 3/120/10 BUOY 41010 1620 74 75 180/ 14/ 16 1021.7R ST AUGUSTINE FL 1700 79 210/ 17/ 20 1019.1F $$

USA.gov is the U.S. government's official web portal to all federal, state and local government web resources and services.